Regional Weather Roundup
Issued by NWS

Home | Current Version | Previous Version | Graphics & Text | Print | Product List | Glossary On
Versions: 1 2 3 4 5 6 7 8 9 10 11 12 13 14 15 16 17 18 19 20 21 22 23 24 25 26 27 28 29 30 31 32 33 34 35 36 37 38 39 40 41 42 43 44 45 46 47 48 49 50
000
ASUS43 KTOP 290308
RWRKS

WEATHER ROUNDUP FOR KANSAS
NATIONAL WEATHER SERVICE GOODLAND KS
1000 PM CDT SAT MAY 28 2016

NOTE:  "FAIR" INDICATES FEW OR NO CLOUDS BELOW 12,000 FEET WITH NO
SIGNIFICANT WEATHER AND/OR OBSTRUCTIONS TO VISIBILITY.

KSZ001>006-013>018-027>032-041>047-290400-
NORTHWEST KANSAS

CITY           SKY/WX    TMP DP  RH WIND       PRES   REMARKS
GOODLAND       CLEAR     65  48  54 S8        30.05R
HAYS           CLEAR     64  54  68 S6        30.01R
HILL CITY      CLEAR     63  56  78 CALM      30.00R
RUSSELL        CLEAR     65  58  78 S8        29.99R
$$

KSZ061>065-074>080-084>089-290400-
SOUTHWEST KANSAS

CITY           SKY/WX    TMP DP  RH WIND       PRES   REMARKS
DODGE CITY     CLEAR     63  54  72 E6        30.04R
ELKHART          N/A     68  45  43 SE5         N/A
GARDEN CITY    CLEAR     66  43  43 E10       30.03R
GREAT BEND     CLEAR     64  54  68 SE6       30.01R
LIBERAL        CLEAR     70  45  40 E7        30.03R
PRATT          CLEAR     68  54  59 E5        30.02R
$$

KSZ066>073-081>083-090>101-290400-
SOUTHEAST KANSAS

CITY           SKY/WX    TMP DP  RH WIND       PRES   REMARKS
CHANUTE        CLEAR     66  62  87 S5        29.99R
COFFEYVILLE    CLEAR     71  65  81 SE5       29.99R
HUTCHINSON     CLEAR     64  60  87 CALM      30.01R
MEDICINE LODGE   N/A     76  50  40 E5        30.00R
NEWTON         CLEAR     70  55  60 N3        30.04
PARSONS        CLEAR     65  63  93 CALM      30.01R
WICHITA INTL   CLEAR     72  58  61 CALM      30.00R
WICHITA JABRA  CLEAR     64  62  93 E3        30.00R
WINFIELD       CLEAR     69  60  73 S5        30.00R
$$

KSZ007>012-019>026-033>040-048>060-102>105-290400-
NORTHEAST KANSAS

CITY           SKY/WX    TMP DP  RH WIND       PRES   REMARKS
CONCORDIA      CLEAR     64  56  75 SW9       29.98R
EMPORIA        CLEAR     66  60  81 SW5       30.00R
LAWRENCE       CLEAR     64  60  87 CALM      29.98R
MANHATTAN      CLEAR     67  59  75 SW6       29.98R
MARYSVILLE     MOCLDY    66  59  77 SW5       29.97R
OLATHE IND     CLEAR     67  60  78 SW6       29.99R
OLATHE EXE     CLEAR     68  59  73 SW3       29.98R
SALINA         CLEAR     67  59  75 S7        29.99R
TOPEKA BILLARD CLEAR     69  58  67 SW6       29.98R
TOPEKA FORBES  CLEAR     66  61  84 SW5       29.99R
$$




USA.gov is the U.S. government's official web portal to all federal, state and local government web resources and services.